TimeCST,TemperatureF,Dew PointF,Humidity,Sea Level PressureIn,VisibilityMPH,Wind Direction,Wind SpeedMPH,Gust SpeedMPH,PrecipitationIn,Events,Conditions,WindDirDegrees,DateUTC
12:35 AM,32.0,28.4,87,30.23,10.0,Calm,Calm,-,0.00,,Clear,0,2013-01-08 06:35:00
12:55 AM,32.0,30.2,93,30.22,10.0,Calm,Calm,-,N/A,,Clear,0,2013-01-08 06:55:00
1:15 AM,32.0,28.4,87,30.21,10.0,Calm,Calm,-,0.00,,Clear,0,2013-01-08 07:15:00
1:35 AM,32.0,30.2,93,30.22,9.0,Calm,Calm,-,0.00,,Clear,0,2013-01-08 07:35:00
1:55 AM,32.0,30.2,93,30.23,9.0,Calm,Calm,-,0.00,,Clear,0,2013-01-08 07:55:00
2:15 AM,32.0,30.2,93,30.22,9.0,Calm,Calm,-,0.00,,Clear,0,2013-01-08 08:15:00
2:35 AM,32.0,30.2,93,30.22,9.0,Calm,Calm,-,0.00,,Clear,0,2013-01-08 08:35:00
2:55 AM,32.0,30.2,93,30.22,8.0,Calm,Calm,-,0.00,,Clear,0,2013-01-08 08:55:00
3:15 AM,32.0,30.2,93,30.22,10.0,Calm,Calm,-,0.00,,Clear,0,2013-01-08 09:15:00
3:35 AM,32.0,30.2,93,30.21,9.0,Calm,Calm,-,0.00,,Clear,0,2013-01-08 09:35:00
3:55 AM,30.2,30.2,100,30.21,10.0,Calm,Calm,-,0.00,,Clear,0,2013-01-08 09:55:00
4:15 AM,32.0,30.2,93,30.21,10.0,Calm,Calm,-,0.00,,Clear,0,2013-01-08 10:15:00
4:35 AM,30.2,30.2,100,30.21,10.0,Calm,Calm,-,0.00,,Clear,0,2013-01-08 10:35:00
4:55 AM,32.0,32.0,100,30.21,10.0,Calm,Calm,-,0.00,,Clear,0,2013-01-08 10:55:00
5:15 AM,32.0,32.0,100,30.21,10.0,Calm,Calm,-,0.00,,Clear,0,2013-01-08 11:15:00
5:55 AM,32.0,32.0,100,30.22,10.0,Calm,Calm,-,0.00,,Clear,0,2013-01-08 11:55:00
6:50 AM,32.0,32.0,100,30.25,10.0,Calm,Calm,-,N/A,,Mostly Cloudy,0,2013-01-08 12:50:00
7:50 AM,32.0,32.0,100,30.26,10.0,Calm,Calm,-,N/A,,Mostly Cloudy,0,2013-01-08 13:50:00
8:50 AM,35.6,33.8,93,30.27,10.0,SE,4.6,-,N/A,,Scattered Clouds,130,2013-01-08 14:50:00
9:50 AM,46.4,35.6,66,30.29,10.0,SSE,9.2,-,N/A,,Scattered Clouds,160,2013-01-08 15:50:00
10:50 AM,51.8,37.4,58,30.27,10.0,South,8.1,-,N/A,,Scattered Clouds,190,2013-01-08 16:50:00
11:45 AM,53.6,37.4,54,30.23,10.0,South,4.6,-,N/A,,Mostly Cloudy,170,2013-01-08 17:45:00
12:50 PM,55.4,37.4,51,30.20,10.0,SE,4.6,-,N/A,,Mostly Cloudy,140,2013-01-08 18:50:00
1:50 PM,55.4,37.4,51,30.18,10.0,East,4.6,-,N/A,,Mostly Cloudy,100,2013-01-08 19:50:00
2:45 PM,55.4,37.4,51,30.19,10.0,SE,5.8,-,N/A,,Mostly Cloudy,140,2013-01-08 20:45:00
3:45 PM,55.4,39.2,54,30.18,10.0,ESE,4.6,-,N/A,,Mostly Cloudy,120,2013-01-08 21:45:00
4:50 PM,53.6,39.2,58,30.19,10.0,ESE,4.6,-,N/A,,Overcast,120,2013-01-08 22:50:00
5:50 PM,51.8,39.2,62,30.18,10.0,Calm,Calm,-,N/A,,Overcast,0,2013-01-08 23:50:00
6:50 PM,51.8,39.2,62,30.18,10.0,Calm,Calm,-,N/A,,Overcast,0,2013-01-09 00:50:00
7:50 PM,51.8,39.2,62,30.18,10.0,Calm,Calm,-,N/A,,Overcast,0,2013-01-09 01:50:00
8:15 PM,50.0,39.2,66,30.18,9.0,ESE,4.6,-,0.00,,Clear,110,2013-01-09 02:15:00
8:35 PM,50.0,39.2,66,30.18,10.0,SE,4.6,-,0.00,,Clear,130,2013-01-09 02:35:00
8:55 PM,50.0,39.2,66,30.17,10.0,SE,5.8,-,N/A,,Clear,140,2013-01-09 02:55:00
9:15 PM,50.0,39.2,66,30.16,9.0,SE,6.9,-,0.00,,Clear,130,2013-01-09 03:15:00
9:35 PM,51.8,39.2,62,30.17,9.0,SE,6.9,-,0.00,,Clear,140,2013-01-09 03:35:00
9:55 PM,51.8,41.0,67,30.18,9.0,SSE,9.2,-,0.00,,Clear,150,2013-01-09 03:55:00
10:15 PM,51.8,42.8,71,30.20,10.0,SSE,6.9,-,0.00,,Clear,150,2013-01-09 04:15:00
10:35 PM,51.8,42.8,71,30.20,10.0,SSE,8.1,-,0.00,,Clear,150,2013-01-09 04:35:00
10:55 PM,51.8,42.8,71,30.20,10.0,SSE,6.9,-,N/A,,Mostly Cloudy,150,2013-01-09 04:55:00
11:15 PM,53.6,44.6,72,30.21,10.0,SSE,8.1,-,0.00,,Overcast,150,2013-01-09 05:15:00
11:35 PM,53.6,44.6,72,30.21,9.0,SSE,10.4,-,0.00,,Scattered Clouds,160,2013-01-09 05:35:00
11:55 PM,53.6,44.6,72,30.21,10.0,SSE,12.7,-,0.00,,Scattered Clouds,160,2013-01-09 05:55:00